CSC8633 ZULS-ZUUU

Flight info

Callsign CSC8633
Flight time 2h 6m
Altitude 37100
Route K0809S1130 DCT LXA W500 DM W9 LADUP LADUP2E
Aircraft A320/M-SDE3FGHIRWY/LB1

Departure

Time 2026-04-19 23:41
Airport Lhasa Gonggar International Airport (ZULS)

Arrival

Time 2026-04-20 01:47
Airport Chengdu Shuangliu International Airport (ZUUU)
Time Latitude Longitude Altitude Speed Heading
2026-04-19 23:15 29.29426 90.89910 11570 ft 0 kts 181°
2026-04-19 23:27 29.29428 90.89910 11585 ft 2 kts 181°
2026-04-19 23:27 29.29444 90.89910 11571 ft 2 kts 180°
2026-04-19 23:27 29.29460 90.89910 11577 ft 2 kts 180°
2026-04-19 23:28 29.29476 90.89910 11577 ft 2 kts 179°
2026-04-19 23:28 29.29490 90.89903 11569 ft 2 kts 132°
2026-04-19 23:28 29.29501 90.89889 11570 ft 2 kts 132°
2026-04-19 23:28 29.29512 90.89876 11581 ft 2 kts 102°
2026-04-19 23:29 29.29513 90.89866 11567 ft 0 kts 82°
2026-04-19 23:30 29.29516 90.89884 11581 ft 3 kts 81°
2026-04-19 23:30 29.29519 90.89904 11574 ft 2 kts 81°
2026-04-19 23:30 29.29521 90.89921 11584 ft 4 kts 81°
2026-04-19 23:30 29.29539 90.89995 11574 ft 11 kts 56°
2026-04-19 23:31 29.29608 90.90018 11574 ft 10 kts 36°
2026-04-19 23:31 29.29625 90.90102 11586 ft 12 kts 90°
2026-04-19 23:31 29.29626 90.90196 11576 ft 12 kts 88°
2026-04-19 23:31 29.29627 90.90295 11581 ft 13 kts 89°
2026-04-19 23:32 29.29628 90.90399 11583 ft 13 kts 94°
2026-04-19 23:32 29.29629 90.90505 11586 ft 14 kts 92°
2026-04-19 23:32 29.29629 90.90616 11577 ft 14 kts 89°
2026-04-19 23:32 29.29630 90.90731 11585 ft 15 kts 89°
2026-04-19 23:33 29.29633 90.90848 11583 ft 15 kts 88°
2026-04-19 23:33 29.29636 90.90968 11569 ft 15 kts 89°
2026-04-19 23:33 29.29639 90.91091 11583 ft 16 kts 88°
2026-04-19 23:33 29.29641 90.91215 11583 ft 16 kts 89°
2026-04-19 23:34 29.29643 90.91339 11583 ft 16 kts 89°
2026-04-19 23:34 29.29645 90.91465 11579 ft 16 kts 89°
2026-04-19 23:34 29.29647 90.91593 11583 ft 16 kts 90°
2026-04-19 23:34 29.29649 90.91724 11578 ft 16 kts 89°
2026-04-19 23:35 29.29651 90.91856 11568 ft 17 kts 89°
2026-04-19 23:35 29.29653 90.91992 11573 ft 17 kts 89°
2026-04-19 23:35 29.29655 90.92131 11575 ft 18 kts 89°
2026-04-19 23:35 29.29657 90.92275 11574 ft 19 kts 88°
2026-04-19 23:36 29.29660 90.92426 11574 ft 20 kts 90°
2026-04-19 23:36 29.29663 90.92585 11568 ft 20 kts 90°
2026-04-19 23:36 29.29664 90.92744 11573 ft 20 kts 90°
2026-04-19 23:36 29.29665 90.92903 11573 ft 20 kts 89°
2026-04-19 23:37 29.29668 90.93062 11574 ft 20 kts 88°
2026-04-19 23:37 29.29670 90.93213 11574 ft 15 kts 89°
2026-04-19 23:37 29.29730 90.93270 11569 ft 0 kts 357°
2026-04-19 23:38 29.29731 90.93270 11569 ft 1 kts 357°
2026-04-19 23:38 29.29785 90.93269 11568 ft 12 kts 359°
2026-04-19 23:38 29.29839 90.93215 11568 ft 11 kts 272°
2026-04-19 23:39 29.29838 90.93195 11562 ft 0 kts 268°
2026-04-19 23:39 29.29834 90.93043 11563 ft 53 kts 269°
2026-04-19 23:40 29.29823 90.92353 11569 ft 118 kts 269°
2026-04-19 23:40 29.29806 90.91197 11584 ft 170 kts 269°
2026-04-19 23:40 29.29779 90.89667 11626 ft 211 kts 269°
2026-04-19 23:40 29.29761 90.87926 12184 ft 220 kts 269°
2026-04-19 23:41 29.29782 90.86189 13220 ft 216 kts 271°
2026-04-19 23:41 29.29838 90.84447 13618 ft 222 kts 272°
2026-04-19 23:41 29.29930 90.82653 13930 ft 229 kts 273°
2026-04-19 23:41 29.30043 90.80824 14349 ft 230 kts 274°
2026-04-19 23:42 29.30172 90.78997 14831 ft 229 kts 274°
2026-04-19 23:42 29.30469 90.77218 15310 ft 229 kts 296°
2026-04-19 23:42 29.31493 90.75845 15993 ft 230 kts 329°
2026-04-19 23:42 29.33013 90.75340 16286 ft 232 kts
2026-04-19 23:43 29.34562 90.75912 16573 ft 243 kts 36°
2026-04-19 23:43 29.35569 90.77450 16966 ft 246 kts 73°
2026-04-19 23:43 29.35627 90.79380 17411 ft 246 kts 107°
2026-04-19 23:43 29.35160 90.81278 17835 ft 249 kts 105°
2026-04-19 23:44 29.34688 90.83212 18109 ft 258 kts 108°
2026-04-19 23:44 29.34106 90.85227 18242 ft 274 kts 110°
2026-04-19 23:44 29.33450 90.87359 18350 ft 294 kts 110°
2026-04-19 23:44 29.32750 90.89607 18467 ft 314 kts 110°
2026-04-19 23:45 29.31989 90.92073 18583 ft 334 kts 110°
2026-04-19 23:45 29.31213 90.94622 18690 ft 352 kts 110°
2026-04-19 23:45 29.30393 90.97345 18817 ft 370 kts 110°
2026-04-19 23:45 29.29658 91.00230 18930 ft 387 kts 99°
2026-04-19 23:46 29.29387 91.03340 19229 ft 396 kts 95°
2026-04-19 23:46 29.29211 91.06512 19665 ft 401 kts 93°
2026-04-19 23:46 29.29073 91.09719 20129 ft 406 kts 93°
2026-04-19 23:46 29.28943 91.12965 20588 ft 410 kts 93°
2026-04-19 23:47 29.28806 91.16241 21033 ft 415 kts 93°
2026-04-19 23:47 29.28651 91.19560 21469 ft 419 kts 93°
2026-04-19 23:47 29.28478 91.22906 21919 ft 423 kts 94°
2026-04-19 23:47 29.28294 91.26286 22361 ft 427 kts 94°
2026-04-19 23:48 29.28105 91.29689 22812 ft 431 kts 94°
2026-04-19 23:48 29.27914 91.33127 23256 ft 435 kts 94°
2026-04-19 23:48 29.27725 91.36598 23661 ft 438 kts 94°
2026-04-19 23:48 29.27535 91.40097 24018 ft 441 kts 94°
2026-04-19 23:49 29.27343 91.43611 24387 ft 444 kts 94°
2026-04-19 23:49 29.27149 91.47155 24755 ft 446 kts 94°
2026-04-19 23:49 29.26954 91.50701 25118 ft 448 kts 94°
2026-04-19 23:49 29.26754 91.54273 25495 ft 450 kts 94°
2026-04-19 23:50 29.26552 91.57850 25882 ft 451 kts 94°
2026-04-19 23:50 29.26351 91.61434 26246 ft 453 kts 94°
2026-04-19 23:50 29.26151 91.65044 26601 ft 455 kts 94°
2026-04-19 23:50 29.25949 91.68669 26955 ft 457 kts 94°
2026-04-19 23:51 29.25741 91.72304 27299 ft 459 kts 95°
2026-04-19 23:51 29.25530 91.75960 27635 ft 461 kts 95°
2026-04-19 23:51 29.25352 91.79632 27980 ft 463 kts 93°
2026-04-19 23:51 29.25238 91.83329 28336 ft 465 kts 92°
2026-04-19 23:52 29.25164 91.87034 28663 ft 468 kts 92°
2026-04-19 23:52 29.25108 91.90766 29001 ft 470 kts 92°
2026-04-19 23:52 29.25049 91.94516 29334 ft 471 kts 92°
2026-04-19 23:52 29.24978 91.98274 29662 ft 473 kts 92°
2026-04-19 23:53 29.24893 92.02055 29985 ft 476 kts 93°
2026-04-19 23:53 29.24795 92.05851 30255 ft 478 kts 93°
2026-04-19 23:53 29.24690 92.09657 30486 ft 480 kts 93°
2026-04-19 23:53 29.24577 92.13490 30710 ft 483 kts 93°
2026-04-19 23:54 29.24461 92.17339 30935 ft 485 kts 93°
2026-04-19 23:54 29.24348 92.21201 31136 ft 487 kts 93°
2026-04-19 23:54 29.24276 92.23775 31272 ft 489 kts 93°
2026-04-19 23:54 29.24173 92.27663 31532 ft 489 kts 93°
2026-04-19 23:55 29.24075 92.31559 31849 ft 490 kts 93°
2026-04-19 23:55 29.23977 92.35461 32121 ft 490 kts 93°
2026-04-19 23:55 29.23878 92.39364 32400 ft 491 kts 93°
2026-04-19 23:55 29.23777 92.43273 32700 ft 491 kts 92°
2026-04-19 23:56 29.23671 92.47182 32986 ft 492 kts 92°
2026-04-19 23:56 29.23558 92.51098 33269 ft 493 kts 92°
2026-04-19 23:56 29.23665 92.55022 33539 ft 494 kts 83°
2026-04-19 23:56 29.24294 92.58876 33802 ft 494 kts 73°
2026-04-19 23:57 29.25437 92.62582 34092 ft 493 kts 64°
2026-04-19 23:57 29.27029 92.66059 34309 ft 493 kts 58°
2026-04-19 23:57 29.28731 92.69472 34493 ft 493 kts 58°
2026-04-19 23:57 29.30429 92.72888 34705 ft 494 kts 58°
2026-04-19 23:58 29.32128 92.76314 34914 ft 496 kts 58°
2026-04-19 23:58 29.33831 92.79752 35119 ft 497 kts 58°
2026-04-19 23:58 29.37206 92.86585 35211 ft 494 kts 58°
2026-04-19 23:59 29.40459 92.93183 35211 ft 492 kts 58°
2026-04-19 23:59 29.43823 93.00009 35207 ft 491 kts 58°
2026-04-20 00:00 29.47186 93.06839 35211 ft 495 kts 58°
2026-04-20 00:00 29.50615 93.13805 35228 ft 505 kts 58°
2026-04-20 00:01 29.54031 93.20790 35204 ft 499 kts 59°
2026-04-20 00:02 29.59115 93.31216 35196 ft 499 kts 59°
2026-04-20 00:02 29.62508 93.38168 35186 ft 498 kts 59°
2026-04-20 00:03 29.65895 93.45120 35303 ft 499 kts 58°
2026-04-20 00:03 29.67591 93.48602 35538 ft 499 kts 58°
2026-04-20 00:03 29.69283 93.52090 35751 ft 500 kts 59°
2026-04-20 00:03 29.70980 93.55588 35881 ft 501 kts 58°
2026-04-20 00:04 29.72681 93.59093 36005 ft 502 kts 58°
2026-04-20 00:04 29.74383 93.62599 36113 ft 501 kts 58°
2026-04-20 00:04 29.76046 93.66030 36240 ft 498 kts 58°
2026-04-20 00:04 29.77736 93.69522 36403 ft 501 kts 59°
2026-04-20 00:05 29.79422 93.73021 36870 ft 497 kts 58°
2026-04-20 00:05 29.81087 93.76491 37132 ft 493 kts 57°
2026-04-20 00:05 29.82754 93.79956 37200 ft 497 kts 57°
2026-04-20 00:06 29.86148 93.86984 37201 ft 507 kts 57°
2026-04-20 00:06 29.89379 93.94296 37194 ft 519 kts 68°
2026-04-20 00:07 29.91211 94.02427 37192 ft 528 kts 76°
2026-04-20 00:07 29.92841 94.10701 37198 ft 530 kts 77°
2026-04-20 00:08 29.94483 94.18980 37203 ft 529 kts 76°
2026-04-20 00:08 29.96120 94.27233 37222 ft 526 kts 76°
2026-04-20 00:09 29.97734 94.35441 37224 ft 523 kts 76°
2026-04-20 00:09 29.99327 94.43620 37222 ft 522 kts 76°
2026-04-20 00:10 30.00907 94.51793 37219 ft 521 kts 76°
2026-04-20 00:10 30.02488 94.59942 37206 ft 521 kts 76°
2026-04-20 00:11 30.04068 94.68096 37226 ft 520 kts 76°
2026-04-20 00:11 30.05632 94.76242 37202 ft 519 kts 76°
2026-04-20 00:12 30.07194 94.84356 37196 ft 517 kts 76°
2026-04-20 00:12 30.08743 94.92456 37174 ft 517 kts 76°
2026-04-20 00:13 30.10276 95.00491 37165 ft 516 kts 76°
2026-04-20 00:13 30.11879 95.08566 37177 ft 516 kts 76°
2026-04-20 00:14 30.13513 95.16636 37165 ft 515 kts 75°
2026-04-20 00:14 30.15120 95.24711 37169 ft 515 kts 76°
2026-04-20 00:15 30.16707 95.32809 37185 ft 518 kts 76°
2026-04-20 00:15 30.18293 95.40919 37213 ft 516 kts 76°
2026-04-20 00:16 30.19883 95.49021 37219 ft 516 kts 75°
2026-04-20 00:16 30.21472 95.57114 37223 ft 516 kts 76°
2026-04-20 00:17 30.23039 95.65216 37227 ft 517 kts 76°
2026-04-20 00:17 30.24592 95.73322 37247 ft 514 kts 76°
2026-04-20 00:18 30.26149 95.81410 37241 ft 516 kts 76°
2026-04-20 00:18 30.27717 95.89513 37250 ft 516 kts 76°
2026-04-20 00:19 30.29278 95.97617 37227 ft 516 kts 76°
2026-04-20 00:19 30.30843 96.05714 37223 ft 516 kts 76°
2026-04-20 00:20 30.32469 96.13797 37211 ft 516 kts 76°
2026-04-20 00:20 30.34113 96.21872 37183 ft 516 kts 76°
2026-04-20 00:21 30.35736 96.29984 37204 ft 517 kts 76°
2026-04-20 00:21 30.37324 96.38036 37190 ft 516 kts 76°
2026-04-20 00:22 30.38922 96.46134 37186 ft 515 kts 76°
2026-04-20 00:22 30.40519 96.54210 37179 ft 513 kts 76°
2026-04-20 00:23 30.42102 96.62266 37178 ft 512 kts 76°
2026-04-20 00:23 30.43673 96.70308 37183 ft 512 kts 76°
2026-04-20 00:24 30.45242 96.78354 37173 ft 512 kts 76°
2026-04-20 00:24 30.46811 96.86392 37152 ft 511 kts 76°
2026-04-20 00:25 30.48375 96.94440 37132 ft 511 kts 76°
2026-04-20 00:25 30.49927 97.02484 37159 ft 511 kts 76°
2026-04-20 00:26 30.51459 97.10527 37153 ft 510 kts 78°
2026-04-20 00:26 30.51812 97.18700 37147 ft 508 kts 97°
2026-04-20 00:27 30.51128 97.26840 37134 ft 507 kts 97°
2026-04-20 00:27 30.50450 97.34980 37105 ft 506 kts 96°
2026-04-20 00:28 30.49781 97.43110 37130 ft 507 kts 96°
2026-04-20 00:28 30.49103 97.51228 37096 ft 504 kts 97°
2026-04-20 00:29 30.48410 97.59317 37083 ft 505 kts 96°
2026-04-20 00:29 30.47726 97.67357 37090 ft 505 kts 96°
2026-04-20 00:30 30.47040 97.75445 37084 ft 504 kts 96°
2026-04-20 00:30 30.46348 97.83526 37074 ft 503 kts 97°
2026-04-20 00:31 30.45642 97.91581 37077 ft 502 kts 97°
2026-04-20 00:31 30.44930 97.99645 37087 ft 503 kts 97°
2026-04-20 00:32 30.44223 98.07704 37098 ft 502 kts 97°
2026-04-20 00:32 30.43513 98.15739 37090 ft 501 kts 97°
2026-04-20 00:33 30.42807 98.23787 37091 ft 502 kts 96°
2026-04-20 00:33 30.42185 98.31845 37088 ft 502 kts 96°
2026-04-20 00:34 30.41589 98.39904 37092 ft 502 kts 96°
2026-04-20 00:34 30.40967 98.47955 37094 ft 502 kts 96°
2026-04-20 00:35 30.40318 98.56000 37091 ft 501 kts 96°
2026-04-20 00:35 30.39668 98.64040 37089 ft 502 kts 96°
2026-04-20 00:36 30.39030 98.72030 37056 ft 501 kts 96°
2026-04-20 00:36 30.38389 98.80074 37058 ft 502 kts 96°
2026-04-20 00:37 30.37739 98.88137 37048 ft 504 kts 96°
2026-04-20 00:37 30.37072 98.96201 37047 ft 503 kts 96°
2026-04-20 00:38 30.36397 99.04274 37050 ft 504 kts 96°
2026-04-20 00:38 30.35718 99.12357 37057 ft 504 kts 96°
2026-04-20 00:39 30.35036 99.20426 37076 ft 502 kts 96°
2026-04-20 00:39 30.34356 99.28466 37087 ft 503 kts 96°
2026-04-20 00:40 30.33660 99.36516 37077 ft 501 kts 96°
2026-04-20 00:40 30.32963 99.44564 37106 ft 503 kts 96°
2026-04-20 00:41 30.32262 99.52612 37118 ft 502 kts 96°
2026-04-20 00:41 30.31567 99.60642 37119 ft 501 kts 96°
2026-04-20 00:42 30.30871 99.68660 37114 ft 500 kts 96°
2026-04-20 00:42 30.30159 99.76666 37121 ft 501 kts 96°
2026-04-20 00:43 30.29437 99.84674 37100 ft 500 kts 97°
2026-04-20 00:43 30.28837 99.91323 37111 ft 501 kts 97°
2026-04-20 00:44 30.27992 100.00627 37099 ft 499 kts 96°
2026-04-20 00:44 30.27358 100.08603 37085 ft 498 kts 95°
2026-04-20 00:45 30.26801 100.16594 37083 ft 498 kts 95°
2026-04-20 00:45 30.26330 100.23281 37084 ft 498 kts 95°
2026-04-20 00:46 30.25733 100.31266 37081 ft 498 kts 96°
2026-04-20 00:46 30.25114 100.39187 37084 ft 498 kts 96°
2026-04-20 00:47 30.24495 100.47156 37076 ft 498 kts 96°
2026-04-20 00:47 30.23884 100.55130 37079 ft 498 kts 96°
2026-04-20 00:48 30.23264 100.63086 37080 ft 496 kts 96°
2026-04-20 00:48 30.22640 100.71026 37082 ft 495 kts 96°
2026-04-20 00:49 30.22012 100.78947 37079 ft 494 kts 96°
2026-04-20 00:49 30.21371 100.86857 37074 ft 495 kts 96°
2026-04-20 00:50 30.20730 100.94768 37077 ft 494 kts 96°
2026-04-20 00:50 30.20091 101.02677 37092 ft 495 kts 96°
2026-04-20 00:51 30.19444 101.10592 37089 ft 494 kts 97°
2026-04-20 00:51 30.18790 101.18494 37091 ft 494 kts 96°
2026-04-20 00:52 30.18126 101.26399 37095 ft 494 kts 96°
2026-04-20 00:52 30.17470 101.34295 37098 ft 494 kts 97°
2026-04-20 00:53 30.16804 101.42197 37101 ft 493 kts 97°
2026-04-20 00:53 30.16125 101.50079 37116 ft 493 kts 96°
2026-04-20 00:54 30.15456 101.57961 37112 ft 492 kts 97°
2026-04-20 00:54 30.14791 101.65832 37128 ft 492 kts 97°
2026-04-20 00:55 30.14969 101.73718 37127 ft 492 kts 78°
2026-04-20 00:55 30.17125 101.81169 37139 ft 489 kts 65°
2026-04-20 00:56 30.19791 101.88356 37131 ft 490 kts 65°
2026-04-20 00:56 30.22458 101.95619 37148 ft 491 kts 65°
2026-04-20 00:57 30.25120 102.02866 37132 ft 489 kts 65°
2026-04-20 00:57 30.27785 102.10139 37162 ft 492 kts 65°
2026-04-20 00:58 30.30441 102.17409 37155 ft 490 kts 65°
2026-04-20 00:58 30.33102 102.24684 37157 ft 490 kts 65°
2026-04-20 00:59 30.35753 102.31949 37158 ft 490 kts 65°
2026-04-20 00:59 30.37077 102.35594 36958 ft 493 kts 65°
2026-04-20 00:59 30.38399 102.39241 36669 ft 490 kts 66°
2026-04-20 00:59 30.39718 102.42886 36406 ft 490 kts 66°
2026-04-20 01:00 30.41032 102.46513 36152 ft 486 kts 66°
2026-04-20 01:00 30.42339 102.50110 35914 ft 482 kts 66°
2026-04-20 01:00 30.43637 102.53682 35673 ft 479 kts 66°
2026-04-20 01:00 30.44923 102.57232 35427 ft 477 kts 66°
2026-04-20 01:01 30.46203 102.60768 35185 ft 476 kts 66°
2026-04-20 01:01 30.47474 102.64288 34798 ft 471 kts 67°
2026-04-20 01:01 30.48736 102.67793 34280 ft 470 kts 67°
2026-04-20 01:01 30.49991 102.71283 33715 ft 468 kts 67°
2026-04-20 01:02 30.51237 102.74753 33223 ft 464 kts 67°
2026-04-20 01:02 30.52474 102.78199 32697 ft 461 kts 67°
2026-04-20 01:02 30.53703 102.81621 32191 ft 459 kts 67°
2026-04-20 01:02 30.54925 102.85032 31699 ft 456 kts 67°
2026-04-20 01:03 30.56118 102.88370 31208 ft 453 kts 67°
2026-04-20 01:03 30.57318 102.91736 30721 ft 451 kts 67°
2026-04-20 01:03 30.58513 102.95089 30233 ft 448 kts 67°
2026-04-20 01:03 30.59698 102.98418 29714 ft 445 kts 67°
2026-04-20 01:04 30.60876 103.01721 29263 ft 440 kts 67°
2026-04-20 01:04 30.62031 103.04993 28806 ft 435 kts 68°
2026-04-20 01:04 30.63154 103.08233 28356 ft 431 kts 68°
2026-04-20 01:04 30.64256 103.11453 27926 ft 427 kts 68°
2026-04-20 01:05 30.65341 103.14648 27470 ft 423 kts 68°
2026-04-20 01:05 30.66415 103.17812 27029 ft 419 kts 68°
2026-04-20 01:05 30.67465 103.20954 26555 ft 415 kts 71°
2026-04-20 01:05 30.68143 103.24196 26109 ft 412 kts 83°
2026-04-20 01:06 30.68287 103.27495 25644 ft 409 kts 94°
2026-04-20 01:06 30.68013 103.30771 25180 ft 406 kts 97°
2026-04-20 01:06 30.67711 103.34022 24704 ft 404 kts 97°
2026-04-20 01:06 30.67414 103.37263 24205 ft 403 kts 96°
2026-04-20 01:07 30.67117 103.40494 23717 ft 402 kts 96°
2026-04-20 01:07 30.66821 103.43711 23181 ft 400 kts 96°
2026-04-20 01:07 30.66526 103.46916 22697 ft 397 kts 96°
2026-04-20 01:07 30.66234 103.50091 22214 ft 394 kts 96°
2026-04-20 01:08 30.65943 103.53249 21744 ft 392 kts 96°
2026-04-20 01:08 30.65650 103.56386 21279 ft 389 kts 96°
2026-04-20 01:08 30.65358 103.59500 20816 ft 387 kts 96°
2026-04-20 01:08 30.65063 103.62605 20357 ft 386 kts 96°
2026-04-20 01:09 30.64769 103.65688 19893 ft 384 kts 96°
2026-04-20 01:09 30.64478 103.68758 19510 ft 380 kts 96°
2026-04-20 01:09 30.64201 103.71771 19101 ft 378 kts 95°
2026-04-20 01:09 30.63934 103.74822 18696 ft 372 kts 95°
2026-04-20 01:10 30.63680 103.77797 17976 ft 367 kts 95°
2026-04-20 01:10 30.64494 103.83276 17096 ft 338 kts 59°
2026-04-20 01:10 30.65890 103.85393 16671 ft 325 kts 41°
2026-04-20 01:11 30.67716 103.86856 16266 ft 319 kts 21°
2026-04-20 01:11 30.69875 103.87438 15873 ft 321 kts 358°
2026-04-20 01:11 30.72042 103.86960 15493 ft 317 kts 334°
2026-04-20 01:11 30.73829 103.85519 15121 ft 313 kts 311°
2026-04-20 01:12 30.75245 103.83587 14757 ft 315 kts 307°
2026-04-20 01:12 30.76860 103.81864 14380 ft 319 kts 327°
2026-04-20 01:12 30.78895 103.80797 14017 ft 321 kts 336°
2026-04-20 01:12 30.80985 103.79879 13630 ft 322 kts 337°
2026-04-20 01:13 30.83087 103.78970 13220 ft 322 kts 337°
2026-04-20 01:13 30.85190 103.78055 12819 ft 322 kts 337°
2026-04-20 01:13 30.87282 103.77135 12440 ft 321 kts 337°
2026-04-20 01:13 30.89364 103.76213 12099 ft 319 kts 337°
2026-04-20 01:14 30.91492 103.75536 11754 ft 318 kts 355°
2026-04-20 01:14 30.93671 103.75852 11415 ft 318 kts 19°
2026-04-20 01:14 30.95547 103.77169 11060 ft 316 kts 44°
2026-04-20 01:14 30.96783 103.79243 10696 ft 313 kts 69°
2026-04-20 01:15 30.97171 103.81711 10341 ft 310 kts 94°
2026-04-20 01:15 30.96638 103.84105 10045 ft 304 kts 120°
2026-04-20 01:15 30.95303 103.85920 9988 ft 294 kts 146°
2026-04-20 01:15 30.93515 103.87075 10003 ft 294 kts 155°
2026-04-20 01:16 30.91660 103.88092 9998 ft 295 kts 156°
2026-04-20 01:16 30.89800 103.89094 10006 ft 295 kts 156°
2026-04-20 01:16 30.87938 103.90094 10009 ft 295 kts 156°
2026-04-20 01:16 30.86075 103.91089 10001 ft 295 kts 157°
2026-04-20 01:17 30.84104 103.91642 10014 ft 292 kts 181°
2026-04-20 01:17 30.82124 103.91209 10011 ft 291 kts 199°
2026-04-20 01:17 30.80212 103.90432 9998 ft 291 kts 200°
2026-04-20 01:17 30.78301 103.89644 10004 ft 291 kts 200°
2026-04-20 01:18 30.76393 103.88859 10000 ft 291 kts 200°
2026-04-20 01:18 30.74484 103.88075 10008 ft 291 kts 200°
2026-04-20 01:18 30.72580 103.87293 10006 ft 291 kts 200°
2026-04-20 01:18 30.70674 103.86509 10004 ft 291 kts 200°
2026-04-20 01:19 30.68768 103.85725 10011 ft 291 kts 200°
2026-04-20 01:19 30.66864 103.84945 10001 ft 290 kts 200°
2026-04-20 01:19 30.64974 103.84172 9758 ft 287 kts 200°
2026-04-20 01:19 30.63093 103.83402 9369 ft 286 kts 200°
2026-04-20 01:20 30.61243 103.82643 8990 ft 285 kts 200°
2026-04-20 01:20 30.59380 103.81877 8628 ft 284 kts 200°
2026-04-20 01:20 30.57525 103.81112 8257 ft 282 kts 200°
2026-04-20 01:20 30.55675 103.80348 7899 ft 281 kts 200°
2026-04-20 01:21 30.53836 103.79591 7525 ft 280 kts 200°
2026-04-20 01:21 30.52005 103.78840 7155 ft 279 kts 200°
2026-04-20 01:21 30.50185 103.78093 6979 ft 275 kts 200°
2026-04-20 01:21 30.48364 103.77348 6997 ft 279 kts 199°
2026-04-20 01:22 30.46563 103.76612 6997 ft 267 kts 200°
2026-04-20 01:22 30.44868 103.75920 6997 ft 250 kts 200°
2026-04-20 01:22 30.43264 103.75268 6895 ft 240 kts 200°
2026-04-20 01:22 30.41714 103.74636 6742 ft 231 kts 200°
2026-04-20 01:23 30.40225 103.74028 6592 ft 225 kts 200°
2026-04-20 01:23 30.38763 103.73413 6329 ft 223 kts 204°
2026-04-20 01:23 30.37579 103.72323 6057 ft 218 kts 236°
2026-04-20 01:23 30.36829 103.70796 5761 ft 218 kts 244°
2026-04-20 01:24 30.35950 103.69390 5486 ft 217 kts 217°
2026-04-20 01:24 30.34563 103.68781 5226 ft 216 kts 181°
2026-04-20 01:24 30.33131 103.69208 4959 ft 216 kts 146°
2026-04-20 01:24 30.32168 103.70516 4658 ft 217 kts 110°
2026-04-20 01:25 30.32033 103.72226 4374 ft 216 kts 76°
2026-04-20 01:25 30.32517 103.73867 4085 ft 216 kts 67°
2026-04-20 01:25 30.33114 103.75448 3988 ft 214 kts 65°
2026-04-20 01:25 30.33730 103.77021 3995 ft 215 kts 65°
2026-04-20 01:26 30.34353 103.78600 3995 ft 216 kts 65°
2026-04-20 01:26 30.34964 103.80129 3990 ft 208 kts 62°
2026-04-20 01:26 30.35794 103.81471 3988 ft 204 kts 49°
2026-04-20 01:26 30.36736 103.82700 4006 ft 203 kts 47°
2026-04-20 01:27 30.37725 103.83865 4003 ft 203 kts 38°
2026-04-20 01:27 30.38876 103.84813 4011 ft 203 kts 33°
2026-04-20 01:27 30.40095 103.85631 4012 ft 203 kts 28°
2026-04-20 01:27 30.41319 103.86381 3997 ft 196 kts 27°
2026-04-20 01:28 30.42524 103.87109 4009 ft 194 kts 27°
2026-04-20 01:28 30.43694 103.87813 4025 ft 182 kts 27°
2026-04-20 01:28 30.44756 103.88470 3967 ft 166 kts 27°
2026-04-20 01:28 30.45772 103.89028 3825 ft 159 kts 24°
2026-04-20 01:29 30.46776 103.89527 3634 ft 155 kts 23°
2026-04-20 01:29 30.47770 103.90001 3450 ft 154 kts 23°
2026-04-20 01:29 30.48753 103.90463 3254 ft 149 kts 23°
2026-04-20 01:29 30.49702 103.90906 3060 ft 146 kts 23°
2026-04-20 01:30 30.50642 103.91344 2864 ft 145 kts 23°
2026-04-20 01:30 30.51557 103.91770 2679 ft 141 kts 22°
2026-04-20 01:30 30.52465 103.92192 2486 ft 141 kts 22°
2026-04-20 01:30 30.53381 103.92619 2301 ft 142 kts 21°
2026-04-20 01:31 30.54304 103.93048 2100 ft 144 kts 21°
2026-04-20 01:31 30.55236 103.93481 1907 ft 145 kts 21°
2026-04-20 01:31 30.56167 103.93918 1735 ft 145 kts 21°
2026-04-20 01:31 30.57080 103.94359 1680 ft 133 kts 21°
2026-04-20 01:32 30.58016 103.94815 1976 ft 160 kts 20°
2026-04-20 01:32 30.59154 103.95346 2463 ft 194 kts 21°
2026-04-20 01:32 30.60524 103.95964 3003 ft 223 kts 21°
2026-04-20 01:32 30.62033 103.96625 3640 ft 235 kts 21°
2026-04-20 01:33 30.63530 103.97254 4558 ft 226 kts 20°
2026-04-20 01:33 30.64986 103.97889 4852 ft 221 kts 20°
2026-04-20 01:33 30.66409 103.98581 4975 ft 221 kts 23°
2026-04-20 01:33 30.67796 103.99352 5002 ft 221 kts 32°
2026-04-20 01:34 30.68834 104.00652 5002 ft 223 kts 61°
2026-04-20 01:34 30.69164 104.01784 5007 ft 226 kts 81°
2026-04-20 01:34 30.69011 104.03596 5007 ft 230 kts 110°
2026-04-20 01:34 30.68090 104.05111 5007 ft 234 kts 139°
2026-04-20 01:35 30.66793 104.06265 5004 ft 235 kts 142°
2026-04-20 01:35 30.65487 104.07409 4997 ft 235 kts 142°
2026-04-20 01:35 30.64178 104.08556 4997 ft 235 kts 141°
2026-04-20 01:35 30.62874 104.09702 4996 ft 236 kts 141°
2026-04-20 01:36 30.61557 104.10837 4993 ft 236 kts 146°
2026-04-20 01:36 30.60014 104.11417 4992 ft 236 kts 180°
2026-04-20 01:36 30.58402 104.11072 4998 ft 237 kts 198°
2026-04-20 01:36 30.56859 104.10408 4995 ft 237 kts 204°
2026-04-20 01:37 30.55347 104.09637 4995 ft 237 kts 205°
2026-04-20 01:37 30.53846 104.08846 4997 ft 237 kts 205°
2026-04-20 01:37 30.52350 104.08049 4997 ft 237 kts 205°
2026-04-20 01:37 30.50853 104.07251 4998 ft 237 kts 205°
2026-04-20 01:38 30.49357 104.06458 5002 ft 237 kts 205°
2026-04-20 01:38 30.47860 104.05667 5006 ft 236 kts 205°
2026-04-20 01:38 30.46363 104.04878 5008 ft 236 kts 205°
2026-04-20 01:38 30.44864 104.04088 5005 ft 236 kts 205°
2026-04-20 01:39 30.43368 104.03298 5007 ft 236 kts 205°
2026-04-20 01:39 30.41891 104.02521 5004 ft 236 kts 205°
2026-04-20 01:39 30.40397 104.01734 4872 ft 235 kts 205°
2026-04-20 01:39 30.38911 104.00952 4581 ft 234 kts 205°
2026-04-20 01:40 30.37439 104.00180 4505 ft 233 kts 205°
2026-04-20 01:40 30.35980 103.99416 4499 ft 226 kts 205°
2026-04-20 01:40 30.34692 103.98428 4495 ft 222 kts 232°
2026-04-20 01:40 30.34076 103.96836 4505 ft 218 kts 267°
2026-04-20 01:41 30.34307 103.95142 4511 ft 214 kts 292°
2026-04-20 01:41 30.34883 103.93554 4507 ft 214 kts 296°
2026-04-20 01:41 30.35506 103.91987 4504 ft 214 kts 297°
2026-04-20 01:41 30.36143 103.90429 4502 ft 214 kts 301°
2026-04-20 01:42 30.37145 103.89223 4501 ft 211 kts 335°
2026-04-20 01:42 30.38506 103.88652 4504 ft 203 kts 345°
2026-04-20 01:42 30.39822 103.88257 4526 ft 187 kts 347°
2026-04-20 01:42 30.41039 103.87922 4435 ft 175 kts 352°
2026-04-20 01:43 30.42226 103.87970 4314 ft 169 kts
2026-04-20 01:43 30.43405 103.88203 3993 ft 177 kts 13°
2026-04-20 01:43 30.44546 103.88590 3964 ft 165 kts 19°
2026-04-20 01:43 30.45604 103.89034 3832 ft 161 kts 21°
2026-04-20 01:44 30.46642 103.89499 3681 ft 158 kts 22°
2026-04-20 01:44 30.47660 103.89964 3472 ft 155 kts 23°
2026-04-20 01:44 30.48660 103.90427 3265 ft 152 kts 23°
2026-04-20 01:44 30.49608 103.90865 3081 ft 143 kts 23°
2026-04-20 01:45 30.50516 103.91287 2888 ft 139 kts 23°
2026-04-20 01:45 30.51411 103.91703 2704 ft 138 kts 22°
2026-04-20 01:45 30.52308 103.92120 2515 ft 140 kts 22°
2026-04-20 01:45 30.53218 103.92543 2326 ft 141 kts 22°
2026-04-20 01:46 30.54135 103.92969 2135 ft 143 kts 21°
2026-04-20 01:46 30.55063 103.93401 1940 ft 144 kts 21°
2026-04-20 01:46 30.55995 103.93835 1750 ft 144 kts 21°
2026-04-20 01:46 30.56912 103.94266 1651 ft 137 kts 21°
2026-04-20 01:47 30.57661 103.94615 1646 ft 92 kts 22°
2026-04-20 01:47 30.58096 103.94814 1648 ft 42 kts 21°
2026-04-20 01:47 30.58340 103.94940 1647 ft 34 kts 30°
2026-04-20 01:47 30.58511 103.95096 1647 ft 27 kts 50°
2026-04-20 01:48 30.58563 103.95219 1647 ft 14 kts 104°
2026-04-20 01:48 30.58540 103.95287 1647 ft 7 kts 112°
2026-04-20 01:48 30.58524 103.95333 1647 ft 6 kts 112°
2026-04-20 01:48 30.58516 103.95355 1647 ft 0 kts 112°
2026-04-20 01:49 30.58496 103.95381 1647 ft 6 kts 153°
2026-04-20 01:49 30.58446 103.95378 1647 ft 11 kts 196°
2026-04-20 01:50 30.58374 103.95345 1647 ft 12 kts 201°
2026-04-20 01:50 30.58298 103.95311 1647 ft 12 kts 202°
2026-04-20 01:50 30.58222 103.95274 1647 ft 12 kts 202°
2026-04-20 01:50 30.58142 103.95236 1647 ft 12 kts 202°
2026-04-20 01:51 30.58063 103.95198 1647 ft 12 kts 202°
2026-04-20 01:51 30.57981 103.95162 1647 ft 12 kts 201°
2026-04-20 01:51 30.57907 103.95153 1647 ft 10 kts 143°
2026-04-20 01:51 30.57876 103.95224 1647 ft 9 kts 113°
2026-04-20 01:52 30.57853 103.95284 1647 ft 7 kts 115°
2026-04-20 01:52 30.57834 103.95336 1647 ft 6 kts 98°
2026-04-20 01:52 30.57834 103.95361 1647 ft 0 kts 89°
2026-04-20 01:52 30.57834 103.95376 1647 ft 2 kts 90°
2026-04-20 01:53 30.57834 103.95389 1647 ft 1 kts 90°
2026-04-20 01:53 30.57834 103.95393 1647 ft 0 kts 90°